Torna al catalogo

STARLINK-36498

AttivoComunicazioniVLEO
NORAD 67318·PAYLOAD·🇺🇸 United States

Lanciato Jan 4, 2026 da Cape Canaveral Space Force Station

Loading…

Prossimi Passaggi (prossime 24 ore)

TLE

AggiornatoSource: CelesTrak SupGP

Epoca: Sep 14, 2026, 15:35 UTC

1 67318C 26002P   26257.64979167  .00038314  00000+0  13881-2 0  2574
2 67318  43.0023 338.2413 0001572 273.5403 191.3417 15.27549957    13

Traccia STARLINK-36498 in tempo reale con AllMySat

Download on the App Store